Tracking 35334 objects as of 12-Sep-2026
HD Live streaming from Space Station
objects crossing your sky now

SL-8 DEB


SL-8 DEB is no longer on orbit


NORAD ID: 1341
Int'l Code: 1965-020L
Launch date: March 15, 1965
Source: Commonwealth of Independent States (former USSR) (CIS)
Launch site: TYURATAM MISSILE AND SPACE COMPLEX (TTMTR)
Decay date: 1969-02-13

Note: This is SATELLITE DEBRIS
Your satellite tracking list
Your tracking list is empty




NASA's NSSDC Master Catalog

Two Line Element Set (TLE):
1 01341U 65020  L 69037.06575276  .01375373 +00000-0 +00000-0 0  9994
2 01341 055.8884 260.9797 0084505 180.7072 179.3782 15.91058026200169
Source of the keplerian elements: AFSPC